ENVISAT (27386 NORAD) Tracking and Keplerian Element Data

This shows tracking and keplerian element data for the satellite.

Feedback or suggestion? Click here.




ElementValue
Catalog27386
NameENVISAT
Epoch Orbit87534
Epoch Day319.99313979
Epoch Year2018
RAAN346.7853
Inclination98.1702
Eccentricity0.0001284
Argument of Perigee97.4331
Mean Anonmoly282.1794
Mean Motion14.37934418
Decay Rate3E-08
L11 27386U 02009A 18319.99313979 .00000003 00000-0 14556-4 0 9997
L22 27386 98.1702 346.7853 0001284 97.4331 282.1794 14.37934418875347

Live tracking and technical data element details for ENVISAT (NORAD 27386). ENVISAT can be tracked NOW for your location showing map with azimuth and elevation plus other details from your city location.

Track the satellite on the map from your city or location and see movement details for azimuth, elevation, latitude, longitude, range, height, and movement on the map or in text.







IsCatalogInMostPopularTable: catalog: 27386, numindb: 40
Update: records affected: 1



GetName: 27386 ENVISAT

Hit Count: updated at: Fri, 16 Nov 2018 06:05:03 GMT